SCP
1 0 0 0 0 0 0 0 0 0 0 0 0 0 0 0 0 0 0 0 0 0 0 1 1 1 1 1 1 0 0 0 0 0 0 1 1 1 1 0 0 0 0 0 0 0 0 0 0
0 0 0 0 0 0 0 0 0 0 0 0 0 0 0 0 0 0 0 0 0 0 0 1 1 1 1 1 1 1 0 0 0 0 0 1 1 1 1 0 0 0 0 0 0 0 0 0 0
0 0 0 0 0 0 0 0 0 0 0 0 0 0 0 0 0 0 0 0 0 0 1 1 1 1 0 0 0 1 0 0 0 0 0 1 1 1 0 0 0 0 0 0 0 0 0 0 0
1 1 0 0 0 0 0 0 0 0 0 0 0 0 0 0 0 0 0 0 0 1 1 1 1 1 0 0 0 0 0 0 0 0 0 0 1 1 0 0 0 0 0 0 0 0 0 0 0
1 1 0 0 0 0 0 0 0 0 0 0 0 0 0 0 0 0 0 0 1 1 1 1 1 1 1 1 0 0 0 0 0 0 0 0 0 0 0 0 0 0 0 0 0 0 0 0 0
1 1 0 0 0 0 0 0 0 0 0 0 0 0 0 0 0 0 0 0 1 1 1 1 1 1 1 1 1 0 0 0 0 0 0 0 0 0 0 0 0 0 0 0 0 0 0 0 0
1 1 0 0 0 0 0 0 0 0 0 0 0 0 0 0 0 0 0 0 0 1 1 1 1 1 0 1 1 1 1 1 1 0 0 0 0 0 0 0 0 0 0 0 0 0 0 0 0
1 1 0 0 0 0 0 0 0 0 0 0 0 0 0 0 0 1 0 0 1 1 1 1 1 0 0 0 0 1 1 1 1 0 0 1 1 0 0 0 0 0 0 0 0 0 0 0 0
1 1 0 0 0 0 0 0 0 0 0 0 0 0 0 0 1 1 1 0 1 1 1 1 0 0 0 0 0 0 0 0 0 0 0 0 0 0 0 0 0 0 0 0 0 0 0 0 0
1 1 1 1 0 0 0 0 0 0 0 0 0 0 0 1 1 1 1 0 0 1 1 1 0 0 0 0 0 0 0 0 0 0 0 0 0 0 0 0 0 0 0 0 0 0 0 0 0
1 1 1 1 0 0 0 0 0 0 0 0 0 0 0 1 1 1 1 0 0 0 1 1 1 1 0 0 0 0 0 0 0 0 0 0 0 0 0 0 0 0 0 0 0 0 0 0 0
1 1 1 0 0 0 0 0 0 0 0 0 0 0 0 1 1 1 1 0 0 0 1 1 1 1 1 0 0 0 0 0 0 0 0 0 0 0 0 0 0 0 0 0 0 0 0 0 0
0 1 1 0 0 0 0 0 0 0 0 0 0 0 0 1 1 1 0 0 0 0 0 1 1 1 1 1 0 0 0 0 0 0 0 0 0 0 0 0 0 0 0 0 0 0 0 0 0
0 0 0 0 0 0 0 0 1 1 1 0 0 0 0 0 0 0 0 0 0 0 0 1 1 1 1 1 0 0 0 0 0 0 0 0 0 0 0 0 0 0 0 0 0 0 0 1 1
0 0 0 0 0 0 0 0 1 1 1 1 1 1 1 0 0 0 0 0 0 0 0 1 1 1 1 1 0 0 0 0 0 0 0 0 0 0 0 0 0 0 0 0 0 0 0 1 1
0 0 0 0 0 0 0 0 1 1 1 1 1 1 1 1 0 0 0 0 0 0 0 0 1 1 1 1 0 0 0 0 0 0 0 0 0 0 0 0 0 0 0 0 0 0 0 0 0
0 0 0 0 0 0 0 0 1 1 1 1 1 1 1 1 1 0 0 0 0 0 0 1 1 1 1 1 0 0 0 0 0 0 0 0 0 0 0 0 0 0 0 0 0 0 0 0 0
0 0 0 0 0 0 0 0 0 1 1 1 1 1 1 1 1 1 1 1 0 0 0 1 1 1 1 1 0 0 0 0 0 0 0 0 0 0 0 0 0 0 0 0 0 0 0 0 0
0 0 0 0 0 0 0 0 0 1 1 1 1 1 1 1 1 1 1 1 0 0 0 1 1 1 1 1 0 0 0 0 0 0 0 0 0 0 0 0 0 0 0 0 0 0 0 0 0
0 0 0 0 0 0 0 0 0 0 1 1 1 1 1 1 1 1 1 1 1 1 0 1 1 1 1 1 1 0 0 0 0 0 0 0 0 0 0 0 0 0 0 0 0 0 0 0 0
0 0 0 0 0 0 0 0 0 0 0 0 1 1 1 1 1 1 1 1 1 1 1 1 1 1 1 1 1 0 0 0 0 0 0 0 0 0 0 0 0 0 0 0 0 0 0 0 0
0 0 0 0 0 0 0 0 0 0 0 0 0 1 1 1 1 1 1 1 1 1 1 1 1 1 1 0 0 0 0 0 0 0 0 0 0 0 0 0 0 0 0 0 0 0 0 0 0
0 0 0 0 0 0 0 0 0 0 0 0 0 0 1 1 1 1 1 1 1 1 1 1 1 1 1 0 0 0 0 0 0 0 0 0 0 0 0 0 0 0 0 0 0 0 0 0 0
0 0 0 0 0 0 0 0 0 0 0 0 0 0 0 0 0 1 1 1 1 1 1 1 1 1 0 0 0 0 0 0 0 0 0 0 0 0 0 0 0 0 0 0 0 0 0 0 0
0 0 0 0 0 0 0 0 0 0 0 0 0 0 0 0 0 1 1 1 1 1 1 1 1 1 1 0 0 0 0 0 0 0 0 0 0 0 0 0 0 0 0 0 0 0 0 0 0
0 0 0 0 0 0 0 0 0 0 0 0 0 0 0 0 1 1 1 1 1 1 1 1 1 1 1 1 0 0 0 0 0 0 0 0 0 0 0 0 0 0 0 0 0 0 0 0 0
0 0 0 0 0 0 0 0 0 0 0 0 0 0 0 0 1 1 1 1 1 1 1 1 1 1 1 1 0 0 0 0 0 0 0 0 0 0 0 0 0 0 0 0 0 0 0 0 0
0 0 0 0 0 0 0 0 0 0 0 0 0 0 0 0 0 1 1 1 1 1 1 1 1 1 1 0 0 0 0 0 0 0 0 0 0 0 0 0 0 0 0 0 0 0 0 0 0
0 0 0 0 0 0 0 0 0 0 0 0 0 0 0 0 0 1 1 1 1 1 1 0 0 0 0 0 0 0 0 0 0 0 0 0 0 0 0 0 0 0 0 0 0 0 0 0 0
0 0 0 0 0 0 0 0 0 0 0 0 0 0 0 0 0 1 1 1 1 1 1 0 0 0 0 0 0 0 0 0 0 0 0 0 0 0 0 0 0 0 0 0 0 0 0 0 0
Wind_Speed
3 2 2 3 3 2 5 5 3 5 5 5 5 4 6 7 6 6 4 3 5 6 6 8 9 9 10 11 10 10 10 11 10 10 11 11 11 10 10 10 9 9 10 10 9 9 9 9 9
1 1 3 2 2 4 5 4 6 6 6 5 5 5 7 8 6 6 4 4 5 6 6 8 9 9 10 11 11 10 10 10 10 10 10 11 11 11 11 10 10 9 9 9 9 9 9 8 8
1 2 2 1 2 4 6 6 7 7 5 4 5 6 6 6 5 4 4 5 6 7 6 9 9 9 10 10 10 11 11 10 10 10 10 10 11 11 11 10 10 9 9 9 9 8 8 8 8
2 2 1 2 8 6 6 6 6 7 5 5 5 7 6 5 4 6 6 6 7 7 7 10 9 8 9 10 10 10 10 10 10 10 10 10 10 10 10 10 10 10 9 9 9 9 9 9 9
1 1 3 6 7 6 5 4 3 4 5 5 5 8 7 5 6 8 7 7 7 7 7 9 9 8 9 10 10 9 9 9 9 9 9 10 10 10 10 9 9 9 9 9 9 9 9 9 10
1 2 4 6 7 6 5 4 4 6 7 6 6 7 7 6 7 7 7 7 7 7 7 8 9 9 9 9 9 8 8 9 9 9 9 10 10 10 10 10 9 9 10 10 9 9 9 10 10
0 1 5 7 7 6 5 4 4 6 6 5 4 6 7 6 6 6 7 7 7 6 6 6 7 8 8 8 9 8 8 8 8 9 9 9 10 10 9 9 9 9 9 9 9 9 9 10 10
1 2 6 6 6 6 6 5 4 4 6 5 2 5 7 7 7 6 7 7 7 6 6 6 6 6 6 7 8 8 8 8 8 8 8 7 7 8 7 8 9 9 9 9 9 9 9 9 10
2 2 5 5 4 6 7 6 5 4 7 5 4 5 8 10 8 7 7 7 6 5 5 5 5 5 5 5 6 5 6 6 4 6 6 2 5 6 6 11 9 9 9 9 9 8 8 7 9
1 3 5 4 4 6 7 5 6 6 7 6 7 8 10 10 8 7 6 6 6 5 4 4 4 4 4 4 4 3 4 4 4 5 5 4 5 6 6 8 8 8 7 8 8 6 4 1 5
3 5 6 5 5 6 6 6 5 6 5 5 9 11 11 10 7 6 5 4 4 4 4 3 4 4 4 3 3 3 2 3 4 5 5 4 4 4 4 3 4 5 4 5 5 3 4 5 5
6 6 5 5 5 5 6 6 5 3 4 5 9 11 11 9 8 6 5 4 3 4 3 3 3 4 4 4 3 2 2 3 3 4 5 4 3 4 4 3 4 3 3 4 4 3 5 5 6
6 7 7 7 6 6 6 5 5 4 5 8 10 10 9 8 7 5 5 4 4 4 4 3 2 3 3 3 2 2 3 3 4 3 3 4 3 3 3 3 3 4 4 4 4 4 5 6 6
7 8 7 6 6 5 6 5 4 5 7 9 10 10 9 7 6 5 5 4 4 3 4 4 3 3 3 2 3 3 3 2 3 3 3 4 3 3 3 4 3 3 3 4 3 5 4 5 5
8 8 7 4 4 4 5 4 4 7 8 9 9 9 8 6 5 5 4 4 4 4 4 4 4 3 3 3 3 3 2 3 3 3 3 4 4 3 3 3 3 3 3 3 4 5 4 5 5
6 5 5 4 3 3 5 3 5 7 9 9 8 8 7 6 6 4 4 4 4 4 4 5 4 3 4 3 3 2 3 3 2 2 3 3 3 3 3 2 3 2 2 2 3 3 3 4 4
5 5 5 5 3 3 4 2 6 8 9 8 8 8 8 7 6 5 4 4 4 4 4 5 5 4 4 3 3 2 3 3 2 2 2 3 4 3 3 2 2 2 2 2 2 2 2 4 4
5 5 4 4 3 4 4 3 6 8 9 8 8 8 8 8 7 6 5 4 4 4 4 5 5 4 4 3 2 2 3 2 2 2 2 4 3 3 3 2 2 2 2 2 2 3 2 3 2
3 4 3 2 2 4 4 4 6 8 9 9 9 9 9 8 7 7 6 6 6 5 5 5 5 5 3 3 2 2 2 2 2 2 3 3 3 3 3 1 2 2 2 1 2 2 3 2 1
5 5 4 3 3 4 4 4 5 7 10 10 10 10 10 9 9 8 7 7 7 6 5 5 5 5 4 2 2 1 2 1 2 2 3 3 3 3 2 2 2 2 2 1 1 1 1 1 1
6 5 4 3 3 4 5 5 6 7 9 9 10 10 10 10 10 10 9 8 7 7 6 5 5 5 5 4 3 3 2 2 2 2 2 3 3 3 3 3 2 2 1 2 1 1 0 0 0
5 4 4 4 5 3 4 4 4 7 9 11 12 11 12 11 11 10 9 9 8 7 6 6 6 5 5 5 4 3 2 2 1 1 2 2 3 2 2 2 2 2 2 2 1 1 0 1 0
2 4 5 5 5 5 5 6 2 5 8 10 12 13 13 13 12 11 10 10 9 8 7 6 6 6 6 5 4 3 2 2 2 2 2 2 2 2 2 2 2 2 2 2 2 1 1 0 1
6 6 5 5 6 6 4 6 3 3 5 6 9 12 13 13 13 11 10 10 9 8 7 6 7 6 6 6 5 4 3 3 3 2 2 2 2 1 2 1 1 2 2 2 2 1 1 1 1
8 7 4 5 5 3 2 5 4 1 2 4 6 10 12 12 12 12 11 11 10 9 9 8 8 7 7 7 6 5 4 4 3 2 2 1 1 1 1 1 1 1 2 2 1 1 2 1 1
9 8 4 3 2 1 3 5 1 0 2 3 5 7 10 12 12 12 12 11 10 10 10 9 9 8 8 7 6 5 5 3 2 2 2 2 1 1 1 1 1 2 2 1 1 1 2 1 1
8 8 5 5 4 4 3 3 3 3 3 3 5 7 10 11 12 12 11 11 10 10 10 10 9 9 8 8 6 5 4 4 3 3 3 2 2 2 2 2 2 2 2 1 1 1 2 1 1
6 6 6 6 4 4 4 4 2 2 3 3 5 6 8 10 11 11 11 11 10 10 9 10 9 9 9 8 7 5 5 4 3 3 3 3 2 2 2 2 2 2 2 1 1 1 1 1 2
9 9 8 6 5 4 3 1 2 1 0 2 3 5 7 9 10 10 9 10 10 9 9 10 9 9 8 8 7 7 6 5 5 4 3 3 3 3 3 2 2 1 1 2 2 1 1 1 1
8 8 9 7 6 6 5 1 3 1 0 1 2 4 6 8 9 9 9 9 9 10 10 10 9 9 8 8 7 7 6 6 5 4 4 4 4 3 3 3 2 2 1 1 1 1 1 1 1
Wind_Direction
148 162 222 235 216 109 77 69 71 93 78 70 64 68 74 51 39 72 80 71 80 80 81 90 81 78 82 81 78 78 80 79 76 72 70 69 69 70 71 74 75 76 75 73 72 70 69 66 63
90 203 229 241 220 115 87 83 86 74 91 104 82 74 77 69 56 83 98 89 91 85 82 80 80 76 77 78 76 76 77 78 77 72 69 67 67 67 69 73 74 74 73 72 70 70 68 65 62
153 256 266 229 83 81 99 97 96 93 87 91 87 62 55 65 73 87 96 111 102 91 89 85 78 75 77 78 76 74 73 75 75 73 69 67 65 64 66 68 70 72 72 71 70 69 67 65 62
225 206 201 107 93 73 90 108 114 117 92 69 97 89 77 56 63 93 107 109 102 97 94 88 78 78 79 78 76 74 71 71 72 72 70 67 65 64 64 65 67 69 72 72 70 68 68 65 63
243 228 141 113 96 91 91 99 119 108 101 90 92 95 88 68 87 103 108 105 99 93 90 90 82 81 79 76 73 71 70 73 73 71 70 66 64 64 63 64 66 69 73 73 70 70 70 67 64
198 213 142 118 110 108 103 110 122 103 108 105 100 102 89 95 105 107 109 106 99 94 90 93 94 83 76 71 70 68 68 69 71 70 67 63 62 63 62 62 66 70 73 74 73 72 72 68 64
36 107 112 119 124 122 114 116 114 115 112 99 107 109 112 114 107 113 112 106 101 99 95 91 93 96 90 73 62 62 64 64 66 67 65 65 65 63 63 65 66 71 73 75 76 76 74 70 66
343 137 126 126 132 117 121 112 94 106 104 102 115 120 129 132 129 122 115 108 103 102 97 92 89 83 85 90 73 61 62 64 65 66 66 72 87 83 73 77 67 69 75 76 76 76 78 76 70
248 162 127 120 128 119 137 128 107 107 114 112 92 90 115 129 135 131 124 118 109 104 101 96 95 89 80 75 82 83 83 74 86 94 84 80 71 73 82 65 67 70 75 76 75 77 84 94 90
183 114 94 91 107 121 132 125 130 137 128 123 116 113 125 136 141 139 135 125 120 116 108 105 100 98 94 82 86 72 72 71 61 64 67 59 62 60 59 90 77 76 83 89 80 88 118 131 94
87 92 105 105 107 122 124 121 136 145 134 139 140 139 142 144 145 145 134 123 118 117 110 111 111 101 91 96 83 78 74 71 63 52 64 57 64 75 66 75 95 93 98 90 100 119 73 73 67
106 98 105 110 116 125 125 130 125 109 100 121 134 142 146 153 152 149 141 138 134 122 120 110 118 116 104 95 89 78 73 64 60 49 50 53 51 51 60 62 61 67 74 74 75 71 77 71 74
113 107 105 109 116 121 123 121 116 105 119 131 136 145 148 150 147 140 142 145 136 133 137 132 134 113 101 92 91 89 71 52 67 49 38 56 55 59 64 73 65 61 68 79 73 78 76 70 65
112 116 115 117 119 128 130 126 129 125 139 141 146 151 152 151 155 149 153 145 136 136 141 142 139 121 114 110 101 82 78 78 61 58 43 50 55 56 57 70 66 62 60 61 71 75 76 71 65
130 128 125 126 134 140 157 144 143 143 155 154 156 155 154 160 170 168 157 156 150 143 151 141 135 133 129 113 88 80 77 72 64 58 49 56 53 53 65 64 70 66 63 70 66 76 76 77 78
155 163 152 138 153 166 217 162 135 155 167 164 165 161 165 170 182 169 160 163 156 154 149 139 148 144 126 111 110 96 77 66 69 61 45 58 64 62 65 67 73 73 67 69 78 79 83 83 74
184 177 160 153 166 180 218 177 149 169 179 175 175 174 177 176 182 173 171 168 157 158 153 144 144 146 127 111 111 88 84 75 65 63 52 49 56 65 80 65 63 79 81 82 89 78 77 85 80
175 179 178 174 160 200 213 203 169 181 191 190 186 185 187 185 182 176 178 174 165 158 157 151 145 147 133 137 121 108 93 86 74 67 59 51 49 56 69 82 75 80 85 83 97 96 85 82 91
185 193 192 179 164 217 226 224 198 186 198 201 198 195 194 190 181 176 178 176 172 163 163 159 160 154 151 148 157 143 119 105 94 70 62 60 53 50 61 51 64 68 83 82 103 108 109 104 109
200 201 190 170 175 236 244 247 222 200 206 208 205 199 195 190 185 179 182 184 182 173 174 170 170 163 161 154 151 132 112 102 80 75 62 50 53 47 50 65 76 76 83 96 89 111 114 96 337
207 219 212 201 194 220 255 244 214 199 207 209 214 208 199 197 197 187 190 191 188 185 182 183 179 171 166 163 155 149 145 157 139 115 88 59 53 55 46 61 68 68 77 85 99 153 196 157 121
211 217 221 214 228 226 248 275 219 200 204 209 210 207 205 201 203 198 195 194 196 191 184 187 179 171 165 169 176 171 168 151 114 96 101 99 73 64 56 63 75 80 71 81 102 91 32 279 233
202 178 207 225 245 256 236 263 238 189 214 213 209 207 205 203 204 200 198 197 196 189 185 184 177 174 171 178 171 187 172 144 133 135 123 113 87 66 70 66 81 90 83 72 56 46 15 348 334
165 172 187 219 237 247 240 254 270 204 226 213 201 202 202 201 200 199 196 196 195 188 183 184 184 178 175 182 181 188 168 164 161 159 134 132 114 95 90 89 89 90 83 81 72 70 65 21 18
205 214 210 209 216 235 203 248 258 270 247 241 213 201 197 196 195 194 192 190 190 188 187 187 186 182 182 187 186 184 177 181 175 171 156 161 134 116 88 109 109 89 78 77 74 74 57 56 43
208 228 242 248 249 243 203 244 250 159 251 244 226 202 193 192 193 194 193 190 189 189 189 190 187 184 182 187 187 187 176 183 171 181 168 168 147 119 106 101 98 99 99 105 83 66 62 50 54
206 220 253 272 264 257 225 230 225 201 202 193 190 187 190 190 191 193 191 189 190 190 190 192 188 185 184 186 185 187 184 180 177 189 174 167 157 144 153 127 116 112 107 91 101 84 88 72 50
242 216 213 240 253 244 239 238 233 175 184 173 178 182 185 187 189 190 190 189 190 188 189 189 190 187 185 185 186 181 189 187 194 188 179 177 170 165 165 151 123 124 126 130 111 96 74 109 84
192 204 222 231 253 267 261 179 64 313 191 186 175 174 177 183 186 185 184 187 186 184 184 185 187 186 184 186 186 184 187 188 195 192 185 182 182 181 179 158 149 145 150 147 148 156 138 122 109
230 226 223 231 224 245 269 265 104 244 216 216 188 167 173 178 179 178 178 179 180 183 185 186 186 187 185 186 185 184 183 186 195 192 188 190 187 183 180 168 166 153 156 167 168 163 168 165 123